Tracking 33744 objects as of 12-Apr-2026
HD Live streaming from Space Station
objects crossing your sky now

STARLINK-36976

Track STARLINK-36976 now!
10-day predictions
STARLINK-36976 is classified as:


NORAD ID: 68066
Int'l Code: 2026-041AC
Perigee: 388.4 km
Apogee: 389.9 km
Inclination: 53.2 °
Period: 92.2 minutes
Semi major axis: 6760 km
RCS: Unknown
Launch date: March 2, 2026
Source: United States (US)
Launch site: AIR FORCE EASTERN TEST RANGE (AFETR)
Your satellite tracking list
Your tracking list is empty




NASA's NSSDC Master Catalog

Two Line Element Set (TLE):
1 68066U 26041AC  26102.50001156 -.01895071  00000-0 -24116-1 0  9996
2 68066  53.1595 253.7250 0001135 103.9642 202.4631 15.61959446  6368
Source of the keplerian elements: AFSPC